GW5874 Weather Reports


time (UTC)temp
F
wind
direction
speed
knots
gust
knots
rain 1hr
in
rain 24hr
in
rain mn
in
humidity
%
barometer
mb
20260901083216 70 266 0.0 0.0 0.00 0.00 0.00 82 1016.9
20260901082715 71 285 0.0 0.0 0.00 0.00 0.00 82 1016.8
20260901082211 71 259 0.0 0.0 0.00 0.00 0.00 81 1016.9
20260901081706 71 279 0.0 0.0 0.00 0.00 0.00 82 1016.8
20260901081206 71 277 0.0 0.0 0.00 0.00 0.00 81 1016.8
20260901080701 70 271 0.0 0.0 0.00 0.00 0.00 82 1016.7
20260901080159 70 289 0.0 0.0 0.00 0.00 0.00 82 1016.8
20260901075655 71 272 0.0 0.0 0.00 0.00 0.00 82 1016.7
20260901075154 71 309 0.0 0.0 0.00 0.00 0.00 81 1016.8
20260901074654 71 275 0.0 0.0 0.00 0.00 0.00 81 1016.5
20260901074149 71 287 0.0 0.0 0.00 0.00 0.00 80 1016.7
20260901073645 71 347 0.0 0.0 0.00 0.00 0.00 79 1016.7
20260901073141 71 291 0.0 0.0 0.00 0.00 0.00 81 1016.8
20260901072636 71 319 0.0 0.0 0.00 0.00 0.00 81 1016.7
20260901072131 71 294 0.0 0.0 0.00 0.00 0.00 80 1016.7
20260901071631 71 275 0.0 0.0 0.00 0.00 0.00 79 1016.9
20260901071131 71 263 0.0 0.0 0.00 0.00 0.00 80 1016.7
20260901070625 71 228 0.0 0.0 0.00 0.00 0.00 79 1016.8
20260901070121 71 218 0.0 0.0 0.00 0.00 0.00 80 1016.6
20260901065614 71 268 0.0 0.0 0.00 0.00 0.00 81 1016.6
20260901065114 70 267 0.0 0.0 0.00 0.00 0.00 82 1016.8
20260901064612 70 243 0.0 0.0 0.00 0.00 0.00 82 1016.8
20260901064108 70 240 0.0 0.0 0.00 0.00 0.00 82 1016.8
20260901063604 70 236 0.0 0.0 0.00 0.00 0.00 82 1016.7
20260901063100 70 278 0.0 0.0 0.00 0.00 0.00 82 1016.8
20260901062555 70 265 0.0 0.0 0.00 0.00 0.00 82 1017.0
20260901062052 70 277 0.0 0.0 0.00 0.00 0.00 82 1016.8
20260901061548 70 276 0.0 0.0 0.00 0.00 0.00 82 1016.7
20260901061043 70 270 0.0 0.0 0.00 0.00 0.00 82 1016.7
20260901060543 70 262 0.0 0.0 0.00 0.00 0.00 82 1016.8
20260901060038 70 273 0.0 0.0 0.00 0.00 0.00 82 1017.0
20260901055533 70 267 0.0 0.0 0.00 0.00 0.00 82 1016.7
20260901055030 70 278 0.0 0.0 0.00 0.00 0.00 81 1016.7
20260901054526 70 275 0.0 0.0 0.00 0.00 0.00 81 1016.7
20260901054022 70 264 0.0 0.0 0.00 0.00 0.00 81 1016.8
20260901053518 71 274 0.0 0.0 0.00 0.00 0.00 81 1016.7
20260901053014 71 273 0.0 0.0 0.00 0.00 0.00 80 1016.6
20260901052514 71 273 0.0 0.0 0.00 0.00 0.00 80 1016.8
20260901052014 71 253 0.0 0.0 0.00 0.00 0.00 80 1016.8
20260901051509 71 263 0.0 0.0 0.00 0.00 0.00 80 1016.7
20260901051007 71 279 0.0 0.0 0.00 0.00 0.00 80 1016.6
20260901050503 71 261 0.0 0.0 0.00 0.00 0.00 79 1016.5
20260901045958 71 284 0.0 0.0 0.00 0.00 0.00 79 1016.5
20260901045453 71 276 0.0 0.0 0.00 0.00 0.00 79 1016.6
20260901044948 71 263 0.0 0.0 0.00 0.00 0.00 79 1016.6
20260901044443 71 253 0.0 0.0 0.00 0.00 0.00 78 1016.6
20260901043939 71 262 0.0 0.0 0.00 0.00 0.00 78 1016.6
20260901043436 72 266 0.0 0.0 0.00 0.00 0.00 78 1016.6
20260901042935 72 277 0.0 0.0 0.00 0.00 0.00 77 1016.2
20260901042435 72 248 0.0 0.0 0.00 0.00 0.00 77 1016.6
20260901041930 72 265 0.0 0.0 0.00 0.00 0.00 77 1016.4
20260901041425 72 238 0.0 0.0 0.00 0.00 0.00 76 1016.5
20260901040925 72 256 0.0 0.0 0.00 0.00 0.00 76 1016.6
20260901040420 73 283 0.0 0.0 0.00 0.00 0.00 76 1016.4
20260901035919 72 281 0.0 0.0 0.00 0.00 0.00 76 1016.5
20260901035418 73 272 0.0 0.0 0.00 0.00 0.00 76 1016.2
20260901034917 73 284 0.0 0.0 0.00 0.00 0.00 75 1016.5
20260901034412 73 273 0.0 0.0 0.00 0.00 0.00 75 1016.4
20260901033907 73 277 0.0 0.0 0.00 0.00 0.00 75 1016.5
20260901033406 73 278 0.0 0.0 0.00 0.00 0.00 75 1016.3
20260901032904 73 255 0.0 0.0 0.00 0.00 0.00 74 1016.2
20260901032404 74 285 0.0 0.0 0.00 0.00 0.00 73 1016.3
20260901031859 74 238 0.0 0.0 0.00 0.00 0.00 73 1016.3
20260901031355 74 268 0.0 0.0 0.00 0.00 0.00 73 1016.5
20260901030854 74 272 0.0 0.0 0.00 0.00 0.00 72 1016.3
20260901030350 75 271 0.0 0.0 0.00 0.00 0.00 71 1016.2
20260901025848 75 281 0.0 0.0 0.00 0.00 0.00 71 1016.2
20260901025344 75 271 0.0 0.0 0.00 0.00 0.00 68 1016.1
20260901024838 75 258 0.0 0.0 0.00 0.00 0.00 69 1016.1
20260901024338 75 262 0.0 0.0 0.00 0.00 0.00 70 1015.9
20260901023836 75 272 0.0 0.0 0.00 0.00 0.00 69 1015.8
20260901023331 75 258 0.0 0.0 0.00 0.00 0.00 69 1015.6
20260901022826 76 268 0.0 0.0 0.00 0.00 0.00 69 1015.7
20260901022322 76 259 0.0 0.0 0.00 0.00 0.00 68 1015.7
20260901021817 76 279 0.0 0.0 0.00 0.00 0.00 68 1015.4
20260901021313 77 273 0.0 0.0 0.00 0.00 0.00 67 1015.4
20260901020808 77 245 0.0 0.0 0.00 0.00 0.00 67 1015.2
20260901020303 77 250 0.0 0.0 0.00 0.00 0.00 66 1015.2
20260901015803 77 286 0.0 0.0 0.00 0.00 0.00 66 1015.1
20260901015300 78 255 0.0 0.0 0.00 0.00 0.00 65 1015.3
20260901014759 78 240 0.0 0.0 0.00 0.00 0.00 64 1015.2
20260901014255 79 250 0.0 0.0 0.00 0.00 0.00 64 1015.1
20260901013751 79 277 0.0 0.0 0.00 0.00 0.00 63 1015.1
20260901013246 80 278 0.0 0.0 0.00 0.00 0.00 62 1015.0
20260901012741 80 269 0.0 0.0 0.00 0.00 0.00 61 1015.0
20260901012241 80 270 0.0 0.0 0.00 0.00 0.00 60 1014.9
20260901011737 81 290 0.0 0.0 0.00 0.00 0.00 59 1014.8
20260901011232 82 233 0.0 0.0 0.00 0.00 0.00 60 1014.7
20260901010726 83 284 0.0 0.0 0.00 0.00 0.00 57 1014.8
20260901010221 84 245 0.0 0.0 0.00 0.00 0.00 57 1014.9
20260901005719 84 285 0.0 0.0 0.00 0.00 0.00 53 1014.7
20260901005215 85 241 0.0 0.0 0.00 0.00 0.00 53 1014.8
20260901004715 86 286 0.0 0.0 0.00 0.00 0.00 52 1014.5
20260901004210 87 286 0.0 0.0 0.00 0.00 0.00 51 1014.8
20260901003709 89 280 0.0 0.0 0.00 0.00 0.00 46 1014.8
20260901003204 90 233 0.0 0.0 0.00 0.00 0.00 44 1014.5
20260901002702 91 226 0.0 0.0 0.00 0.00 0.00 42 1014.3
20260901002157 91 238 0.0 0.0 0.00 0.00 0.00 39 1014.5
20260901001653 92 257 0.9 0.9 0.00 0.00 0.00 40 1014.5
20260901001148 93 276 0.0 0.0 0.00 0.00 0.00 40 1014.3
20260901000644 94 236 0.0 0.0 0.00 0.00 0.00 37 1014.4
20260901000139 95 217 0.9 0.9 0.00 0.00 0.00 35 1014.5
20260831235638 95 244 0.9 0.9 0.00 0.00 0.00 36 1014.5
20260831235134 96 243 0.9 0.9 0.00 0.00 0.00 35 1014.4
20260831234633 96 205 3.5 4.3 0.00 0.00 0.00 33 1014.6
20260831234128 97 197 2.6 3.5 0.00 0.00 0.00 33 1014.7
20260831233624 97 204 5.2 8.7 0.00 0.00 0.00 32 1014.5
20260831233119 98 256 0.0 0.9 0.00 0.00 0.00 32 1014.6
20260831232614 97 195 2.6 2.6 0.00 0.00 0.00 32 1014.4
20260831232110 97 195 5.2 6.1 0.00 0.00 0.00 32 1014.6
20260831231606 97 161 1.7 2.6 0.00 0.00 0.00 33 1014.6
20260831231101 98 80 2.6 2.6 0.00 0.00 0.00 31 1014.6
20260831230557 98 187 2.6 3.5 0.00 0.00 0.00 31 1014.5
20260831230058 99 232 1.7 2.6 0.00 0.00 0.00 31 1014.5
20260831225553 99 212 2.6 3.5 0.00 0.00 0.00 29 1014.7
20260831225053 99 146 3.5 4.3 0.00 0.00 0.00 31 1014.6
20260831224548 100 126 3.5 3.5 0.00 0.00 0.00 30 1014.5
20260831224043 100 196 4.3 6.1 0.00 0.00 0.00 30 1014.3
20260831223538 102 260 3.5 4.3 0.00 0.00 0.00 28 1014.5
20260831223035 102 239 1.7 2.6 0.00 0.00 0.00 28 1014.5
20260831222531 100 259 0.0 0.0 0.00 0.00 0.00 30 1014.7
20260831222030 100 222 2.6 2.6 0.00 0.00 0.00 30 1014.7
20260831221526 102 247 0.0 0.9 0.00 0.00 0.00 29 1014.6
20260831221021 103 268 0.9 0.9 0.00 0.00 0.00 28 1014.7
20260831220516 102 265 1.7 2.6 0.00 0.00 0.00 27 1014.9
20260831220012 101 219 2.6 3.5 0.00 0.00 0.00 29 1014.7
20260831215507 100 204 3.5 4.3 0.00 0.00 0.00 30 1014.7
20260831215003 100 216 1.7 2.6 0.00 0.00 0.00 29 1014.8
20260831214500 101 202 2.6 3.5 0.00 0.00 0.00 30 1014.8
20260831213956 99 178 0.9 0.9 0.00 0.00 0.00 30 1014.9
20260831213452 99 355 1.7 2.6 0.00 0.00 0.00 30 1014.9
20260831212952 100 191 7.8 8.7 0.00 0.00 0.00 29 1014.9
20260831212449 102 164 6.1 8.7 0.00 0.00 0.00 28 1014.9
20260831211948 100 266 0.9 0.9 0.00 0.00 0.00 29 1014.8
20260831211444 100 184 7.0 9.6 0.00 0.00 0.00 29 1014.7
20260831210942 99 210 5.2 6.1 0.00 0.00 0.00 31 1015.1
20260831210438 101 198 3.5 3.5 0.00 0.00 0.00 31 1015.1
20260831205934 101 127 2.6 3.5 0.00 0.00 0.00 29 1015.2
20260831205429 102 223 3.5 4.3 0.00 0.00 0.00 29 1015.3
20260831204925 100 250 1.7 2.6 0.00 0.00 0.00 29 1015.1
20260831204424 103 301 2.6 3.5 0.00 0.00 0.00 28 1015.4
20260831203923 103 269 0.0 0.9 0.00 0.00 0.00 28 1015.3
20260831203418 102 260 0.9 0.9 0.00 0.00 0.00 29 1015.4
20260831202916 101 155 3.5 3.5 0.00 0.00 0.00 30 1015.4
20260831202412 100 273 1.7 2.6 0.00 0.00 0.00 29 1015.4
20260831201911 101 237 0.0 0.9 0.00 0.00 0.00 29 1015.4
20260831201410 100 210 1.7 3.5 0.00 0.00 0.00 31 1015.5
20260831200906 101 186 5.2 7.0 0.00 0.00 0.00 30 1015.7
20260831200401 100 107 5.2 6.1 0.00 0.00 0.00 30 1016.1
20260831195856 101 250 1.7 2.6 0.00 0.00 0.00 31 1015.6
20260831195352 101 257 0.9 0.9 0.00 0.00 0.00 30 1015.8
20260831194847 101 291 2.6 3.5 0.00 0.00 0.00 30 1015.9
20260831194342 100 212 2.6 2.6 0.00 0.00 0.00 31 1015.9
20260831193841 100 255 3.5 4.3 0.00 0.00 0.00 31 1015.9
20260831193337 100 235 2.6 3.5 0.00 0.00 0.00 31 1015.9
20260831192832 100 190 5.2 6.1 0.00 0.00 0.00 31 1016.2
20260831192331 100 197 5.2 7.0 0.00 0.00 0.00 31 1016.1
20260831191827 99 205 4.3 7.0 0.00 0.00 0.00 31 1016.2
20260831191323 99 213 2.6 3.5 0.00 0.00 0.00 31 1016.4
20260831190819 100 286 2.6 3.5 0.00 0.00 0.00 30 1016.4
20260831190319 101 159 0.9 2.6 0.00 0.00 0.00 30 1016.5
20260831185819 103 148 3.5 4.3 0.00 0.00 0.00 29 1016.5
20260831185314 102 315 3.5 4.3 0.00 0.00 0.00 30 1016.5
20260831184813 99 268 0.9 0.9 0.00 0.00 0.00 32 1016.7
20260831184309 98 204 3.5 8.7 0.00 0.00 0.00 33 1016.6
20260831183804 99 196 3.5 3.5 0.00 0.00 0.00 33 1016.8
20260831183303 102 202 7.0 10.4 0.00 0.00 0.00 30 1016.8
20260831182803 102 261 3.5 4.3 0.00 0.00 0.00 30 1016.7
20260831182258 101 266 2.6 2.6 0.00 0.00 0.00 31 1016.9
20260831181753 101 304 2.6 3.5 0.00 0.00 0.00 32 1016.9
20260831181249 98 211 3.5 4.3 0.00 0.00 0.00 33 1017.0
20260831180748 96 299 1.7 2.6 0.00 0.00 0.00 36 1017.1
20260831180243 100 121 3.5 3.5 0.00 0.00 0.00 35 1017.2
20260831175743 99 19 0.9 0.9 0.00 0.00 0.00 34 1017.2
20260831175239 97 172 1.7 2.6 0.00 0.00 0.00 35 1017.4
20260831174734 99 234 4.3 6.1 0.00 0.00 0.00 33 1017.4
20260831174230 98 244 1.7 2.6 0.00 0.00 0.00 35 1017.6
20260831173729 98 236 1.7 2.6 0.00 0.00 0.00 36 1017.4
20260831173229 97 291 2.6 3.5 0.00 0.00 0.00 36 1017.6
20260831172724 97 277 3.5 4.3 0.00 0.00 0.00 36 1017.6
20260831172220 98 196 0.9 0.9 0.00 0.00 0.00 36 1017.6
20260831171714 98 302 1.7 2.6 0.00 0.00 0.00 36 1017.7
20260831171212 98 284 2.6 3.5 0.00 0.00 0.00 35 1017.8
20260831170708 98 286 1.7 2.6 0.00 0.00 0.00 37 1017.8
20260831170204 98 321 1.7 3.5 0.00 0.00 0.00 38 1017.9
20260831165700 97 232 1.7 2.6 0.00 0.00 0.00 38 1018.2
20260831165156 98 259 0.9 2.6 0.00 0.00 0.00 38 1018.2
20260831164652 96 245 1.7 2.6 0.00 0.00 0.00 39 1018.0
20260831164148 96 285 1.7 2.6 0.00 0.00 0.00 40 1018.1
20260831163643 96 273 1.7 3.5 0.00 0.00 0.00 40 1018.3
20260831163138 95 256 1.7 2.6 0.00 0.00 0.00 40 1018.2
20260831162637 96 312 2.6 3.5 0.00 0.00 0.00 40 1018.2
20260831162135 96 277 1.7 3.5 0.00 0.00 0.00 40 1018.3
20260831161631 95 233 2.6 3.5 0.00 0.00 0.00 40 1018.2
20260831161128 94 344 2.6 3.5 0.00 0.00 0.00 42 1018.3
20260831160627 93 261 3.5 4.3 0.00 0.00 0.00 43 1018.2
20260831160123 94 303 3.5 3.5 0.00 0.00 0.00 41 1018.2
20260831155622 95 272 2.6 3.5 0.00 0.00 0.00 42 1018.2
20260831155118 94 174 2.6 3.5 0.00 0.00 0.00 44 1018.1
20260831154614 95 291 3.5 4.3 0.00 0.00 0.00 42 1018.2
20260831154114 96 171 3.5 3.5 0.00 0.00 0.00 41 1017.9
20260831153613 94 257 2.6 3.5 0.00 0.00 0.00 43 1018.0
20260831153110 94 232 1.7 2.6 0.00 0.00 0.00 43 1018.1
20260831152605 93 356 0.9 0.9 0.00 0.00 0.00 45 1018.0
20260831152101 93 282 0.9 2.6 0.00 0.00 0.00 45 1017.8
20260831151600 91 192 1.7 2.6 0.00 0.00 0.00 48 1017.9
20260831151054 92 163 1.7 3.5 0.00 0.00 0.00 46 1018.2
20260831150549 91 201 1.7 2.6 0.00 0.00 0.00 48 1017.9
20260831150046 91 194 2.6 3.5 0.00 0.00 0.00 49 1018.2
20260831145540 90 206 2.6 3.5 0.00 0.00 0.00 51 1017.9
20260831145036 89 181 1.7 2.6 0.00 0.00 0.00 52 1017.9
20260831144531 88 245 2.6 3.5 0.00 0.00 0.00 52 1017.9
20260831144027 88 179 3.5 4.3 0.00 0.00 0.00 54 1017.9
20260831143521 87 202 3.5 4.3 0.00 0.00 0.00 54 1018.0
20260831143017 87 150 4.3 4.3 0.00 0.00 0.00 55 1018.1
20260831142514 86 230 2.6 3.5 0.00 0.00 0.00 56 1017.9
20260831142009 86 184 0.9 0.9 0.00 0.00 0.00 56 1017.9
20260831141507 86 181 1.7 2.6 0.00 0.00 0.00 56 1018.2
20260831141002 85 171 1.7 2.6 0.00 0.00 0.00 57 1018.0
20260831140502 85 207 2.6 3.5 0.00 0.00 0.00 57 1018.1
20260831140001 86 152 1.7 2.6 0.00 0.00 0.00 56 1018.1
20260831135500 84 218 0.0 0.0 0.00 0.00 0.00 58 1017.9
20260831134955 84 228 0.0 0.0 0.00 0.00 0.00 57 1018.0
20260831134452 82 221 0.0 0.0 0.00 0.00 0.00 60 1017.9
20260831133951 82 221 0.9 0.9 0.00 0.00 0.00 61 1018.0
20260831133446 81 293 0.0 0.9 0.00 0.00 0.00 61 1017.9
20260831132941 80 256 0.0 0.9 0.00 0.00 0.00 62 1017.7
20260831132437 79 226 0.0 0.0 0.00 0.00 0.00 63 1017.7
20260831131936 79 246 0.0 0.0 0.00 0.00 0.00 65 1017.8
20260831131431 78 264 0.0 0.0 0.00 0.00 0.00 68 1017.5
20260831130927 77 259 0.0 0.9 0.00 0.00 0.00 69 1017.6
20260831130422 76 233 0.0 0.0 0.00 0.00 0.00 71 1017.5
20260831125921 74 271 0.0 0.0 0.00 0.00 0.00 74 1017.4
20260831125416 72 277 0.0 0.0 0.00 0.00 0.00 77 1017.4
20260831124912 72 251 0.0 0.0 0.00 0.00 0.00 79 1017.6
20260831124408 72 299 0.0 0.0 0.00 0.00 0.00 79 1017.3
20260831123908 71 301 0.0 0.0 0.00 0.00 0.00 79 1017.3
20260831123407 70 297 0.9 0.9 0.00 0.00 0.00 81 1017.2
20260831122902 69 285 0.0 0.0 0.00 0.00 0.00 83 1017.2
20260831122357 69 281 0.0 0.0 0.00 0.00 0.00 84 1016.9
20260831121852 69 267 0.0 0.0 0.00 0.00 0.00 83 1016.9
20260831121348 69 282 0.0 0.0 0.00 0.00 0.00 83 1016.9
20260831120843 69 282 0.0 0.0 0.00 0.00 0.00 84 1016.8
20260831120338 69 293 0.0 0.0 0.00 0.00 0.00 83 1016.6
20260831115833 69 282 0.0 0.0 0.00 0.00 0.00 82 1016.8
20260831115330 69 283 0.0 0.0 0.00 0.00 0.00 82 1016.7
20260831114828 69 274 0.0 0.0 0.00 0.00 0.00 83 1016.4
20260831114327 69 264 0.0 0.0 0.00 0.00 0.00 82 1016.5
20260831113823 69 295 0.0 0.9 0.00 0.00 0.00 81 1016.5
20260831113323 69 266 0.0 0.0 0.00 0.00 0.00 81 1016.3
20260831112818 69 266 0.0 0.0 0.00 0.00 0.00 79 1016.3
20260831112313 69 272 0.0 0.0 0.00 0.00 0.00 79 1016.3
20260831111808 70 266 0.0 0.0 0.00 0.00 0.00 78 1016.4
20260831111304 71 269 0.0 0.0 0.00 0.00 0.00 77 1016.3
20260831110800 71 268 0.0 0.0 0.00 0.00 0.00 76 1016.1
20260831110255 71 261 0.0 0.0 0.00 0.00 0.00 75 1016.2
20260831105753 72 259 0.0 0.0 0.00 0.00 0.00 74 1016.1
20260831105249 73 260 0.0 0.0 0.00 0.00 0.00 74 1016.1
20260831104749 73 263 0.0 0.0 0.00 0.00 0.00 72 1016.2
20260831104246 73 241 0.0 0.0 0.00 0.00 0.00 71 1016.2
20260831103746 74 247 0.0 0.9 0.00 0.00 0.00 70 1016.1
20260831103242 74 225 0.0 0.9 0.00 0.00 0.00 69 1016.3
20260831102741 74 249 0.0 0.0 0.00 0.00 0.00 68 1015.9
20260831102236 75 249 0.0 0.0 0.00 0.00 0.00 67 1015.9
20260831101732 75 262 0.0 0.0 0.00 0.00 0.00 66 1015.9
20260831101227 75 220 0.0 0.0 0.00 0.00 0.00 67 1016.1
20260831100723 75 141 0.9 0.9 0.00 0.00 0.00 65 1015.9
20260831100219 75 192 0.0 0.9 0.00 0.00 0.00 65 1016.1
20260831095718 76 240 0.0 0.9 0.00 0.00 0.00 65 1015.8
20260831095213 76 179 0.9 0.9 0.00 0.00 0.00 64 1015.8
20260831094708 76 195 1.7 2.6 0.00 0.00 0.00 64 1015.9
20260831094204 76 102 1.7 2.6 0.00 0.00 0.00 62 1015.9
20260831093659 76 216 0.9 0.9 0.00 0.00 0.00 63 1015.9
20260831093155 76 261 0.0 0.0 0.00 0.00 0.00 64 1015.9
20260831092651 76 225 0.9 0.9 0.00 0.00 0.00 64 1015.9
20260831092147 76 185 1.7 2.6 0.00 0.00 0.00 62 1015.7
20260831091645 77 228 0.9 2.6 0.00 0.00 0.00 61 1015.7
20260831091142 77 222 0.0 0.9 0.00 0.00 0.00 61 1015.8
20260831090637 77 251 0.0 0.0 0.00 0.00 0.00 61 1015.7
20260831090133 77 215 0.9 0.9 0.00 0.00 0.00 61 1015.6
20260831085628 77 223 0.9 0.9 0.00 0.00 0.00 60 1015.5
20260831085123 77 133 1.7 2.6 0.00 0.00 0.00 60 1015.4
20260831084619 77 97 2.6 2.6 0.00 0.00 0.00 60 1015.5
20260831084115 77 197 0.0 0.9 0.00 0.00 0.00 60 1015.6
20260831083611 77 208 0.9 0.9 0.00 0.00 0.00 60 1015.6